Location: Aalen
(48.8330°N, 10.1000°E)
Time: 05:42:47
(UTC+02:00)

UWE-3 - Pass Details

Date: 10 April 2023
Orbit: 576 x 670 km, 97.7° (Epoch: 29 May)

Event Time Altitude Azimuth Distance (km) Brightness Sun altitude
Rises 03:09:56 0° 28° (NNE) 2,923 ? -28.6°
Reaches altitude 10° 03:12:55 10° 49° (NE) 1,989 ? -28.3°
Maximum altitude 03:15:40 16° 89° (E) 1,584 ? -28.1°
Enters shadow 03:16:46 15° 108° (ESE) 1,645 ? -28.0°
